Location: Coll
(42.4728°N, 0.7714°E)
Time: 07:04:54
(UTC+00:00)

Cosmos 2279 Rocket - Pass Details

Date: 23 October 2020
Orbit: 963 x 980 km, 82.9° (Epoch: 23 November)

Event Time Altitude Azimuth Distance (km) Brightness Sun altitude
Rises 05:00:44 0° 344° (NNW) 3,669 6.8 -15.2°
Reaches altitude 10° 05:03:25 10° 336° (NNW) 2,715 6.1 -14.7°
Maximum altitude 05:09:00 36° 272° (W) 1,473 4.4 -13.7°
Drops below altitude 10° 05:14:32 10° 208° (SSW) 2,692 6.1 -12.7°
Sets 05:17:13 0° 200° (SSW) 3,634 6.8 -12.2°
